Location: L�Ave Maria
(50.7161°N, 1.5911°E)
Time: 00:31:07
(UTC+00:00)

Cosmos 44 Rocket - Pass Details

Date: 10 July 2020
Orbit: 651 x 739 km, 65.1° (Epoch: 03 August)

Event Time Altitude Azimuth Distance (km) Brightness Sun altitude
Exits shadow 22:55:47 22° 131° (SE) 1,417 4.4 -15.9°
Maximum altitude 22:56:39 24° 114° (ESE) 1,372 4.5 -15.9°
Drops below altitude 10° 23:00:25 10° 62° (ENE) 2,098 5.9 -16.1°
Sets 23:03:07 0° 48° (NE) 3,030 7.0 -16.2°
